Weather in Gia Nghĩa

Vietnam     12°00′27″N   107°41′03″E
temp.,
°C
wind,
m/s
gust,
m/s
humid.,
%
clouds,
%
prec.,
mm/h
press.,
hPa
HPBL,
m
18 january, tue
tue1801:00+18ene259050 0.0 1015205
04:00+15ene149966 0.0 101589
07:00+15ene159589 0.0 1016156
10:00+25ne245236 0.0 1015906
13:00+29ne233713 0.0 10122097
16:00+27nne334397 0.0 10101315
19:00+20ne311759 0.0 1013506
22:00+17ne28896 0.0 1015294
19 january, wed
wed1901:00+15ne279933 0.0 1014265
04:00+15ene279772 0.0 1013323
07:00+16ene299191 0.0 1015425
10:00+24ne345519 0.0 1015954
13:00+28nne334099 0.0 10102072
16:00+26nne444793 0.0 10091215
19:00+20ne3107261 0.0 1012468
22:00+16ne259536 0.0 1014189
20 january, thu
thu2001:00+14ne1510036 0.0 1013132
04:00
07:00+15ene159630 0.0 1014139
10:00+25ene234718 0.0 1013879
13:00
16:00+29ne323826 0.0 10071727
19:00+22nne2572100 0.1 1011270
22:00+19ne1284100 0.0 101393
21 january, fri
fri2101:00+19ene138783 0.0 1013128
04:00+16ne129925 0.0 101249
07:00+17ene13957 0.0 101490
10:00+27ne125027 0.0 10131037
13:00+30ne223211 0.0 10092278
16:00+30ne323542 0.0 10071664
19:00+22ene1567100 0.0 1011210
22:00+21ne1278100 0.0 101260
22 january, sat
sat2201:00+19ene118589 0.0 101247
04:00+19ene118469 0.0 101148
07:00+18ene11885 0.0 101242
10:00+28wnw01470 0.0 10121244
13:00+32s113231 0.0 10082591
16:00+27nw1450100 0.0 1007257
19:00+22w1473100 0.3 1010108
22:00+22n007887 0.1 101117